DW9768 Weather Reports


time (UTC)temp
C
wind
direction
speed
KPH
gust
KPH
rain 1hr
cm
rain 24hr
cm
rain mn
cm
humidity
%
barometer
mb
20260508010017 6 117 3.2 8.0 0.00 0.00 0.00 75 1018.4
20260508004532 6 117 1.6 9.7 0.00 0.00 0.00 75 1018.3
20260508003021 6 109 4.8 9.7 0.00 0.00 0.00 73 1018.4
20260508001518 6 159 3.2 8.0 0.00 0.00 0.00 75 1018.3
20260508000013 6 171 1.6 6.4 0.00 0.00 0.00 75 1018.4
20260507234514 6 202 4.8 8.0 0.00 0.00 0.00 75 1018.4
20260507233022 6 154 4.8 8.0 0.00 0.00 0.00 75 1018.4
20260507231510 6 149 4.8 8.0 0.00 0.00 0.00 74 1018.5
20260507230109 6 158 3.2 8.0 0.00 0.00 0.00 74 1018.5
20260507224506 6 150 1.6 8.0 0.00 0.00 0.00 72 1018.5
20260507223004 7 195 4.8 9.7 0.00 0.00 0.00 72 1018.4
20260507221505 7 207 8.0 9.7 0.00 0.00 0.00 71 1018.4
20260507220058 7 198 6.4 9.7 0.00 0.00 0.00 70 1018.4
20260507214618 7 193 4.8 8.0 0.00 0.00 0.00 68 1018.4
20260507213107 7 173 3.2 6.4 0.00 0.00 0.00 68 1018.3
20260507211615 7 211 4.8 8.0 0.00 0.00 0.00 67 1018.2
20260507210056 7 223 6.4 9.7 0.00 0.00 0.00 67 1018.2
20260507204606 7 226 8.0 11.3 0.00 0.00 0.00 67 1018.2
20260507203059 7 229 9.7 12.9 0.00 0.00 0.00 65 1018.2
20260507201552 7 225 8.0 11.3 0.00 0.00 0.00 65 1018.1
20260507200050 7 238 8.0 11.3 0.00 0.00 0.00 61 1017.9
20260507194616 8 252 8.0 12.9 0.00 0.00 0.00 65 1017.8
20260507193046 8 244 9.7 12.9 0.00 0.00 0.00 63 1017.7
20260507191550 7 261 1.6 4.8 0.00 0.00 0.00 63 1017.5
20260507190044 8 298 0.0 3.2 0.00 0.00 0.00 58 1017.4
20260507184644 8 280 1.6 4.8 0.00 0.00 0.00 56 1017.4
20260507183043 8 250 3.2 8.0 0.00 0.00 0.00 53 1017.3
20260507181543 9 277 4.8 8.0 0.00 0.00 0.00 51 1017.2
20260507180041 9 275 4.8 11.3 0.00 0.00 0.00 49 1017.1
20260507174547 9 243 4.8 11.3 0.00 0.00 0.00 52 1017.1
20260507173041 9 244 6.4 12.9 0.00 0.00 0.00 49 1017.2
20260507171546 9 284 6.4 14.5 0.00 0.00 0.00 46 1017.0
20260507170040 9 271 8.0 12.9 0.00 0.00 0.00 56 1017.1
20260507164537 9 286 9.7 12.9 0.00 0.00 0.00 60 1017.0
20260507163036 9 275 8.0 14.5 0.00 0.00 0.00 62 1017.1
20260507161539 9 259 8.0 14.5 0.00 0.00 0.00 59 1017.1
20260507160035 8 249 9.7 16.1 0.00 0.00 0.00 66 1017.1
20260507154536 8 265 9.7 14.5 0.00 0.00 0.00 66 1017.2
20260507153040 9 253 11.3 16.1 0.00 0.00 0.00 65 1017.1
20260507151533 9 269 11.3 16.1 0.00 0.00 0.00 64 1017.2
20260507150032 8 267 12.9 17.7 0.00 0.00 0.00 67 1017.2
20260507144532 8 253 11.3 19.3 0.00 0.00 0.00 66 1017.1
20260507143030 8 259 12.9 22.5 0.00 0.00 0.00 66 1017.2
20260507141529 8 263 14.5 20.9 0.00 0.00 0.00 66 1017.2
20260507140026 9 266 9.7 22.5 0.00 0.00 0.00 66 1017.3
20260507134526 8 275 16.1 22.5 0.00 0.00 0.00 64 1017.2
20260507133025 8 290 11.3 22.5 0.00 0.00 0.00 59 1017.3
20260507131525 8 298 12.9 19.3 0.00 0.00 0.00 57 1017.5
20260507130032 9 301 11.3 19.3 0.00 0.00 0.00 59 1017.4
20260507124526 8 290 12.9 19.3 0.00 0.00 0.00 58 1017.4
20260507123019 9 293 11.3 17.7 0.00 0.00 0.00 56 1017.3
20260507121518 8 273 12.9 17.7 0.00 0.00 0.00 52 1017.4
20260507120021 8 295 12.9 19.3 0.00 0.00 0.00 53 1017.4
20260507114514 8 282 11.3 19.3 0.00 0.00 0.00 54 1017.4
20260507113012 8 264 11.3 20.9 0.00 0.00 0.00 57 1017.5
20260507111513 8 269 12.9 20.9 0.00 0.00 0.00 55 1017.5
20260507110009 9 306 9.7 16.1 0.00 0.00 0.00 53 1017.6
20260507104506 9 342 9.7 17.7 0.00 0.00 0.00 54 1017.5
20260507103008 8 321 8.0 17.7 0.00 0.00 0.00 56 1017.6
20260507101503 8 325 9.7 17.7 0.00 0.00 0.00 55 1017.4
20260507100100 8 320 4.8 16.1 0.00 0.00 0.00 50 1017.4
20260507094558 8 310 9.7 16.1 0.00 0.00 0.00 53 1017.4
20260507093101 8 312 6.4 12.9 0.00 0.00 0.00 50 1017.4
20260507091556 7 332 11.3 16.1 0.00 0.00 0.00 53 1017.4
20260507090156 7 346 4.8 16.1 0.00 0.00 0.00 53 1017.5
20260507084555 7 325 11.3 16.1 0.00 0.00 0.00 52 1017.5
20260507083053 7 24 3.2 11.3 0.00 0.00 0.00 57 1017.4
20260507081554 7 344 6.4 14.5 0.00 0.00 0.00 55 1017.3
20260507080058 7 351 3.2 11.3 0.00 0.00 0.00 60 1017.2
20260507074550 8 94 1.6 8.0 0.00 0.00 0.00 60 1017.2
20260507073046 7 146 1.6 9.7 0.00 0.00 0.00 62 1017.2
20260507071602 7 59 1.6 11.3 0.00 0.00 0.00 64 1017.3
20260507070040 7 102 1.6 6.4 0.00 0.00 0.00 63 1017.1
20260507064536 6 94 3.2 9.7 0.00 0.00 0.00 65 1017.1
20260507063037 6 34 1.6 6.4 0.00 0.00 0.00 67 1017.0
20260507061530 6 80 0.0 4.8 0.00 0.00 0.00 75 1016.9
20260507060025 5 21 0.0 3.2 0.00 0.00 0.00 77 1016.9
20260507054523 5 5 0.0 6.4 0.00 0.00 0.00 77 1016.8
20260507053022 5 45 0.0 0.0 0.00 0.00 0.00 79 1016.9
20260507051529 4 340 0.0 0.0 0.00 0.00 0.00 78 1016.8
20260507050022 3 333 0.0 0.0 0.00 0.00 0.00 79 1016.7
20260507044521 3 331 0.0 0.0 0.00 0.00 0.00 81 1016.6
20260507043018 3 355 0.0 0.0 0.00 0.00 0.00 82 1016.6
20260507041517 3 355 0.0 1.6 0.00 0.00 0.00 81 1016.4
20260507040017 3 355 0.0 3.2 0.00 0.00 0.00 81 1016.5
20260507034529 3 335 1.6 6.4 0.00 0.00 0.00 80 1016.4
20260507033029 3 326 1.6 6.4 0.00 0.00 0.00 81 1016.4
20260507031514 2 327 0.0 0.0 0.00 0.00 0.00 83 1016.3
20260507030013 2 327 0.0 0.0 0.00 0.00 0.00 83 1016.4
20260507024513 2 327 0.0 3.2 0.00 0.00 0.00 82 1016.3
20260507023020 2 327 0.0 0.0 0.00 0.00 0.00 82 1016.2
20260507021510 2 327 0.0 4.8 0.00 0.00 0.00 82 1016.2
20260507020012 2 342 0.0 6.4 0.00 0.00 0.00 82 1016.2
20260507014512 3 321 3.2 8.0 0.00 0.00 0.00 80 1016.2
20260507013007 2 321 4.8 8.0 0.00 0.00 0.00 82 1016.0
20260507011505 2 329 4.8 8.0 0.00 0.00 0.00 80 1016.1